[[{"header":{"parameterUnit":"m.s-1","parameterCategory":1,"la1":30.2991,"la2":30.254,"lo1":-89.0895,"lo2":-89.0444,"dy":0.0017,"dx":0.0017,"nx":28,"ny":28,"refTime":"2025-03-27T09:00:00:Z","depth":0,"parameterNumber":2,"parameterNumberName":"U-component_of_WINDS"},"data":[0,0,0,0,0,0,0,0,0,0,0,0,0,0,0,0,0,0,0,0,0,0,0,0,0,0,0,0,0,0,0,0,0,0,0,0,0,0,0,0,0,0,0,0,0,0,0,0,0,0,0,0,0,0,0,0,0,0,-5.1246,-5.1247,0,-5.1296,-5.1297,-5.1298,-5.1212,-5.1209,-5.1206,-5.1203,-5.1252,-5.1256,-5.126,0,0,0,0,0,0,0,0,0,0,0,0,0,-5.1074,-5.1078,-5.1246,-5.1247,-5.1247,-5.1296,-5.1297,-5.1298,-5.1212,-5.1209,-5.1205,-5.1202,-5.1251,-5.1256,-5.1261,0,0,0,0,0,0,0,0,0,0,0,0,0,-5.1139,-5.1079,-5.1246,-5.1211,-5.1208,-5.1296,-5.1297,-5.1298,-5.1213,-5.1209,-5.1204,-5.12,-5.1249,-5.1255,-5.1261,-5.1385,0,0,-5.128,-5.1282,0,0,0,0,0,0,0,0,-5.1135,-5.1145,-5.1215,-5.1213,-5.121,-5.1243,-5.1254,-5.1327,-5.1214,-5.1211,-5.1203,-5.1198,-5.1253,-5.1258,-5.1277,-5.1388,-5.139,-5.128,-5.1284,-5.1286,-5.1288,0,0,0,0,0,0,0,-5.1131,-5.1143,-5.1266,-5.1216,-5.1213,-5.1192,-5.1196,-5.1268,-5.1256,-5.1211,-5.1205,-5.1212,-5.125,-5.1272,-5.1278,-5.1391,-5.128,-5.1285,-5.1289,-5.1291,-5.1606,-5.1611,0,0,0,0,0,0,-5.1131,-5.114,-5.1264,-5.1267,-5.1162,-5.1198,-5.1203,-5.1237,-5.1255,-5.1253,-5.1216,-5.1208,-5.1263,-5.1271,-5.1279,-5.1425,-5.1286,-5.1292,-5.1295,-5.1602,-5.1608,-5.1613,0,0,0,0,0,0,-5.1128,-5.1143,-5.1262,-5.1202,-5.1215,-5.1206,-5.1245,-5.124,-5.1261,-5.1258,-5.1255,-5.124,-5.126,-5.1271,-5.136,-5.1426,-5.1295,-5.13,-5.1596,-5.1604,-5.161,-5.1719,0,0,0,0,0,0,-5.1123,-5.1142,-5.119,-5.1204,-5.1219,-5.1343,-5.1249,-5.1245,-5.1272,-5.1262,-5.128,-5.1278,-5.1258,-5.1351,-5.1366,-5.1432,-5.1305,-5.159,-5.1599,-5.1608,-5.171,-5.1729,-5.1746,0,0,0,0,0,-5.1117,-5.1218,-5.1193,-5.1208,-5.1278,-5.1347,-5.1355,-5.133,-5.1278,-5.1325,-5.1324,-5.1278,-5.1417,-5.1361,-5.1377,-5.1446,-5.1586,-5.1597,-5.1607,-5.1702,-5.1726,-5.1746,0,0,0,0,0,0,-5.121,-5.1219,-5.1191,-5.1299,-5.1323,-5.1332,-5.1391,-5.1356,-5.1395,-5.1384,-5.135,-5.1355,-5.1451,-5.1457,-5.1395,-5.1567,-5.1492,-5.1507,-5.1559,-5.1582,-5.16,-5.1595,-5.131,0,0,0,0,0,-5.1244,-5.13,-5.1304,-5.1399,-5.1412,-5.14,-5.1429,-5.1408,-5.1431,-5.144,-5.1445,-5.1469,-5.1518,-5.155,-5.1595,-5.1711,-5.1714,-5.1767,-5.1785,-5.18,-5.1812,-5.1874,-5.1897,-5.1648,-5.1648,-5.1648,0,0,-5.1312,-5.1324,-5.1361,-5.1418,-5.1434,-5.1492,-5.1409,-5.1473,-5.1516,-5.145,-5.1534,-5.1539,-5.1564,-5.1667,-5.1713,-5.1675,-5.1882,-5.1813,-5.1825,-5.1829,-5.1887,-5.1911,-5.1932,-5.1655,-5.1654,-5.1653,0,0,-5.1466,-5.1482,-5.1562,-5.1581,-5.1607,-5.1599,-5.1618,-5.1634,-5.1635,-5.172,-5.1671,-5.1722,-5.1807,-5.1826,-5.1847,-5.2012,-5.1972,-5.2028,-5.2122,-5.2183,-5.2202,-5.222,-5.2278,-5.2299,-5.2041,-5.2041,-5.2041,0,-5.1548,-5.1634,-5.1608,-5.1676,-5.1703,-5.1648,-5.1729,-5.1748,-5.1787,-5.1806,-5.1765,-5.1871,-5.1884,-5.1991,-5.2032,-5.2051,-5.2072,-5.2024,-5.2202,-5.2219,-5.2235,-5.229,-5.2312,-5.2048,-5.2047,-5.2046,-5.2045,0,-5.1733,-5.1794,-5.1856,-5.1896,-5.193,-5.2005,-5.1989,-5.2027,-5.2004,-5.2,-5.2087,-5.2101,-5.2148,-5.2172,-5.215,-5.2277,-5.2253,-5.2208,-5.2131,-5.2265,-5.2316,-5.2337,-5.2057,-5.2055,-5.2053,-5.2051,0,0,-5.1943,-5.1971,-5.1994,-5.2012,-5.2039,-5.2085,-5.2158,-5.2205,-5.2237,-5.2267,-5.2327,-5.2402,-5.236,-5.2384,-5.2364,-5.2418,-5.2547,-5.2365,-5.2365,-5.2397,-5.2687,-5.272,-5.2745,-5.2521,-5.2525,-5.2529,-5.2685,0,-5.2096,-5.2222,-5.2202,-5.2323,-5.2379,-5.2329,-5.2392,-5.2415,-5.2414,-5.2461,-5.246,-5.2513,-5.2455,-5.2469,-5.252,-5.252,-5.2604,-5.2509,-5.2575,-5.2578,-5.2569,-5.2772,-5.2806,-5.2953,-5.2705,-5.2708,-5.2711,0,-5.229,-5.2329,-5.2456,-5.2475,-5.2498,-5.2555,-5.2597,-5.2643,-5.2669,-5.2664,-5.2693,-5.2663,-5.2736,-5.2661,-5.276,-5.2696,-5.2722,-5.2727,-5.2732,-5.2735,-5.2651,-5.2779,-5.2999,-5.3021,-5.2742,-5.2739,-5.2737,0,-5.243,-5.2514,-5.2601,-5.2618,-5.2643,-5.2684,-5.2696,-5.2717,-5.2748,-5.2785,-5.2804,-5.2849,-5.2873,-5.2909,-5.2892,-5.284,-5.2995,-5.2918,-5.2992,-5.2993,-5.3024,-5.3022,-5.325,-5.3046,-5.3045,-5.3045,-5.3044,0,-5.2601,-5.268,-5.2664,-5.2717,-5.2805,-5.2782,-5.287,-5.2876,-5.2896,-5.2949,-5.2909,-5.296,-5.2936,-5.2986,-5.2973,-5.3057,-5.3069,-5.3066,-5.3062,-5.3069,-5.3069,-5.3084,-5.3072,-5.3051,-5.3049,-5.3048,-5.3047,0,-5.277,-5.2762,-5.2854,-5.2871,-5.2877,-5.2941,-5.2955,-5.3005,-5.3002,-5.3071,-5.3085,-5.3081,-5.3137,-5.3125,-5.3187,-5.3178,-5.3283,-5.3267,-5.3275,-5.327,-5.3344,-5.3337,-5.3588,-5.3619,-5.3396,-5.3398,-5.34,0,-5.2878,-5.2939,-5.2963,-5.2996,-5.3012,-5.3067,-5.3098,-5.3078,-5.3112,-5.3147,-5.3193,-5.3246,-5.3287,-5.3379,-5.3381,-5.3428,-5.3412,-5.3497,-5.3418,-5.3424,-5.3411,-5.3407,-5.3412,-5.3511,-5.3514,-5.3516,-5.3518,0,-5.3071,-5.3065,-5.3112,-5.3159,-5.3198,-5.3233,-5.3264,-5.3294,-5.3277,-5.3318,-5.3375,-5.3408,-5.3472,-5.3524,-5.3569,-5.358,-5.3546,-5.3543,-5.3562,-5.3569,-5.357,-5.3569,-5.3315,-5.3536,-5.3534,-5.3533,-5.3532,-5.3531,-5.3212,-5.3264,-5.3289,-5.3343,-5.3366,-5.3396,-5.3444,-5.3449,-5.3497,-5.3548,-5.3534,-5.36,-5.3625,-5.3681,-5.3698,-5.3749,-5.3717,-5.3745,-5.3752,-5.3759,-5.3767,-5.3565,-5.3757,-5.3757,-5.3756,-5.3756,-5.3755,0,-5.3402,-5.3417,-5.3467,-5.3513,-5.3556,-5.3523,-5.3556,-5.3594,-5.3652,-5.3679,-5.3722,-5.3789,-5.384,-5.3848,-5.3897,-5.3936,-5.3922,-5.395,-5.3945,-5.3949,-5.3794,-5.3771,-5.3961,-5.3961,-5.3961,-5.3961,-5.396,-5.396,-5.3505,-5.3591,-5.3588,-5.3685,-5.3699,-5.3763,-5.3785,-5.3814,-5.3835,-5.3912,-5.3956,-5.3961,-5.398,-5.4031,-5.4077,-5.4078,-5.4097,-5.4131,-5.4126,-5.398,-5.3959,-5.394,-5.3919,-5.4136,-5.4136,-5.4276,-5.4277,-5.4278]},{"header":{"parameterUnit":"m.s-1","parameterCategory":1,"la1":30.2991,"la2":30.254,"lo1":-89.0895,"lo2":-89.0444,"dy":0.0017,"dx":0.0017,"nx":28,"ny":28,"refTime":"2025-03-27T09:00:00:Z","depth":0,"parameterNumber":3,"parameterNumberName":"V-component_of_WINDS"},"data":[0,0,0,0,0,0,0,0,0,0,0,0,0,0,0,0,0,0,0,0,0,0,0,0,0,0,0,0,0,0,0,0,0,0,0,0,0,0,0,0,0,0,0,0,0,0,0,0,0,0,0,0,0,0,0,0,0,0,1.4761,1.4761,0,1.4754,1.4754,1.4754,1.4735,1.4735,1.4734,1.4734,1.4727,1.4727,1.4728,0,0,0,0,0,0,0,0,0,0,0,0,0,1.4758,1.4759,1.4761,1.4761,1.4761,1.4754,1.4754,1.4754,1.4735,1.4735,1.4734,1.4734,1.4727,1.4727,1.4728,0,0,0,0,0,0,0,0,0,0,0,0,0,1.4756,1.4759,1.4761,1.475,1.4749,1.4754,1.4754,1.4754,1.4735,1.4735,1.4734,1.4733,1.4727,1.4727,1.4728,1.4742,0,0,1.4729,1.4729,0,0,0,0,0,0,0,0,1.4757,1.4757,1.4752,1.4751,1.475,1.4745,1.4751,1.475,1.4735,1.4741,1.4734,1.4733,1.4734,1.4733,1.4733,1.4742,1.4741,1.4729,1.4729,1.4729,1.4729,0,0,0,0,0,0,0,1.4757,1.4757,1.4758,1.4752,1.4751,1.4747,1.4746,1.4751,1.4741,1.474,1.4739,1.4738,1.4733,1.4733,1.4733,1.4741,1.4729,1.4729,1.4729,1.4729,1.4763,1.4763,0,0,0,0,0,0,1.4758,1.4757,1.4758,1.4758,1.4752,1.4747,1.4746,1.4747,1.4741,1.4739,1.4739,1.4737,1.4733,1.4733,1.4733,1.475,1.4729,1.4729,1.4729,1.4762,1.4763,1.4764,0,0,0,0,0,0,1.4758,1.4759,1.4759,1.4757,1.4757,1.4748,1.4749,1.4747,1.4748,1.4739,1.4738,1.4741,1.4732,1.4732,1.474,1.475,1.4729,1.473,1.4761,1.4762,1.4763,1.4784,0,0,0,0,0,0,1.4758,1.4759,1.4764,1.4757,1.4757,1.4766,1.475,1.4748,1.4748,1.4746,1.4741,1.4739,1.4732,1.474,1.474,1.475,1.473,1.476,1.4762,1.4763,1.4783,1.4786,1.4789,0,0,0,0,0,1.4758,1.477,1.4764,1.4764,1.4763,1.4766,1.4766,1.4757,1.4749,1.4754,1.4749,1.474,1.4748,1.4741,1.4741,1.4751,1.476,1.4761,1.4763,1.4781,1.4785,1.4789,0,0,0,0,0,0,1.4777,1.4768,1.4762,1.4772,1.477,1.4763,1.4769,1.4762,1.4762,1.476,1.4749,1.4748,1.4758,1.4755,1.4747,1.4765,1.4753,1.4754,1.4767,1.477,1.4773,1.4774,1.473,0,0,0,0,0,1.4782,1.4785,1.4778,1.4787,1.4787,1.4778,1.4779,1.4773,1.4771,1.477,1.4765,1.4764,1.4766,1.4768,1.477,1.4782,1.4782,1.4789,1.4792,1.4795,1.4797,1.4804,1.4808,1.4769,1.4769,1.4769,0,0,1.4793,1.4789,1.4791,1.4791,1.4789,1.4793,1.4778,1.4782,1.4786,1.477,1.4778,1.4775,1.4772,1.4783,1.4787,1.4781,1.4807,1.4797,1.4799,1.4799,1.4806,1.481,1.4813,1.477,1.477,1.4769,0,0,1.4815,1.4812,1.4819,1.4818,1.4815,1.481,1.4812,1.4806,1.4804,1.4811,1.48,1.4804,1.4808,1.4808,1.4808,1.4831,1.4823,1.4832,1.4848,1.4855,1.4858,1.4861,1.487,1.4874,1.4834,1.4834,1.4834,0,1.4828,1.4834,1.4824,1.483,1.4831,1.4818,1.4826,1.4825,1.4823,1.4824,1.4817,1.4823,1.482,1.4831,1.4837,1.4837,1.484,1.4832,1.4859,1.4861,1.4864,1.4872,1.4876,1.4835,1.4835,1.4835,1.4835,0,1.4852,1.4856,1.4862,1.4861,1.4863,1.487,1.4862,1.4865,1.4858,1.4854,1.4863,1.4859,1.4861,1.4863,1.4856,1.4873,1.4869,1.4861,1.4848,1.4869,1.4877,1.488,1.4837,1.4836,1.4836,1.4836,0,0,1.4884,1.4879,1.4881,1.4881,1.4878,1.4881,1.4888,1.489,1.4893,1.4892,1.4898,1.4903,1.4896,1.4896,1.4889,1.4896,1.4916,1.4887,1.4887,1.4893,1.4936,1.4943,1.4947,1.4911,1.4911,1.4912,1.4936,0,1.4905,1.4917,1.4909,1.4922,1.4927,1.4915,1.4921,1.492,1.4917,1.4921,1.4917,1.4921,1.491,1.491,1.4916,1.4913,1.4925,1.4911,1.4917,1.4917,1.4918,1.4951,1.4958,1.4981,1.4939,1.494,1.494,0,1.4931,1.4933,1.4946,1.4943,1.4945,1.495,1.4952,1.4956,1.4955,1.4952,1.4953,1.4945,1.4953,1.4941,1.4951,1.4942,1.4944,1.4943,1.4944,1.4944,1.493,1.4953,1.4988,1.4992,1.4945,1.4945,1.4944,0,1.4955,1.496,1.4969,1.4969,1.4965,1.497,1.4969,1.4967,1.4969,1.4971,1.4973,1.4975,1.4977,1.4979,1.4973,1.4964,1.4985,1.4971,1.4983,1.4984,1.4988,1.4988,1.5025,1.4989,1.4989,1.4989,1.4989,0,1.498,1.4989,1.4979,1.4985,1.4995,1.4987,1.4997,1.4995,1.4994,1.5,1.499,1.4995,1.4986,1.4991,1.4986,1.4997,1.4997,1.4996,1.4994,1.4997,1.4997,1.4998,1.4997,1.499,1.499,1.4989,1.4989,0,1.5007,1.5001,1.5011,1.5007,1.5007,1.5014,1.5011,1.5017,1.5013,1.502,1.5022,1.5016,1.5021,1.5015,1.502,1.5017,1.5031,1.5027,1.5032,1.5031,1.5043,1.5042,1.5083,1.5088,1.5048,1.5048,1.5049,0,1.5024,1.503,1.5028,1.5031,1.5031,1.5035,1.5038,1.503,1.5033,1.5033,1.5039,1.5044,1.5047,1.5056,1.5053,1.5057,1.5053,1.5067,1.5054,1.5056,1.5054,1.5054,1.5055,1.507,1.507,1.5071,1.5071,0,1.5054,1.5051,1.5054,1.5057,1.5061,1.5063,1.5064,1.5067,1.5059,1.5063,1.5069,1.5071,1.5077,1.5082,1.5085,1.5084,1.5077,1.5075,1.5079,1.5081,1.5084,1.5083,1.504,1.5074,1.5074,1.5074,1.5074,1.5074,1.5077,1.5083,1.5082,1.5087,1.5087,1.5089,1.5094,1.5092,1.5096,1.51,1.5095,1.5103,1.5103,1.5107,1.5107,1.5113,1.5107,1.5111,1.5112,1.5114,1.5116,1.5083,1.5113,1.5113,1.5113,1.5113,1.5113,0,1.5107,1.5106,1.5111,1.5113,1.5117,1.511,1.5111,1.5115,1.5122,1.5123,1.5126,1.5134,1.5139,1.5136,1.5141,1.5146,1.5143,1.5148,1.5148,1.5148,1.512,1.5118,1.5151,1.5151,1.5151,1.5151,1.5151,1.5151,1.5123,1.5133,1.5131,1.5141,1.5141,1.5148,1.5149,1.5151,1.5152,1.516,1.5165,1.5163,1.5163,1.5168,1.5173,1.5172,1.5175,1.5181,1.5179,1.5153,1.515,1.5146,1.5143,1.5181,1.5181,1.5206,1.5206,1.5206]}]]